Weather History for Rogers City, MI

Change the Weather History Date:

Friday, April 12, 2013

  Actual Average (KAPN) Record (KAPN)
Temperature  
Mean Temperature 30 °F 40 °F  
Max Temperature 32 °F 51 °F 81 °F (1968)
Min Temperature 29 °F 30 °F 10 °F (1926)
Degree Days  
Heating Degree Days 34 25  
Month to date heating degree days 326  
Since 1 July heating degree days 7182  
Cooling Degree Days 0 0  
Month to date cooling degree days 0  
Year to date cooling degree days 0  
Moisture  
Dew Point 28 °F    
Average Humidity 90    
Maximum Humidity 95    
Minimum Humidity 70    
Precipitation  
Precipitation 0.00 in 0.09 in 1.27 in (1951)
Month to date precipitation 0.96  
Year to date precipitation 5.80  
Snow  
Snow 0.00 in 0.20 in 5.30 in (2007)
Month to date snowfall 3.3  
Since 1 July snowfall 81.6  
Snow Depth -    
Sea Level Pressure  
Sea Level Pressure 29.70 in    
Wind  
Wind Speed 17 mph (ENE)    
Max Wind Speed 26 mph    
Max Gust Speed 37 mph    
Visibility 2 miles    
Events Snow    
T = Trace of Precipitation, MM = Missing Value Source: NWS Daily Summary

Daily Weather History Graph

Daily Weather History Graph

Search for Another Location

Airport:

Trip Planner

Search our weather history database for the weather conditions in past years. The results will help you decide how hot, cold, wet, or windy it might be!

Date:

Astronomy

Apr. 12, 2013 Rise Set
Actual Time 6:54 AM EDT 8:17 PM EDT
Civil Twilight 6:24 AM EDT 8:48 PM EDT
Nautical Twilight 5:47 AM EDT 9:25 PM EDT
Astronomical Twilight 5:07 AM EDT 10:05 PM EDT
Moon 7:57 AM EDT (4/12) 10:55 PM EDT (4/12)
Length of Visible Light 14h 24m
Length of Day
13h 22m
Waxing Crescent, 5% of the Moon is Illuminated
Apr 12
Waxing Crescent
Apr 18
First Quarter
Apr 25
Full
May 2
Last Quarter
May 9
New

Hourly Weather History & Observations

Time (EDT) Temp. Windchill Dew Point Humidity Pressure Visibility Wind Dir Wind Speed Gust Speed Precip Events Conditions
12:15 AM 31.8 °F 20.2 °F 23.0 °F 70% 29.89 in 3.0 mi East 18.4 mph 36.8 mph N/A Snow Light Snow
12:34 AM 31.6 °F 18.4 °F 23.7 °F 73% 29.89 in 4.0 mi ENE 24.2 mph 33.4 mph N/A Snow Light Snow
12:55 AM 31.5 °F 19.4 °F 23.4 °F 72% 29.88 in 3.0 mi ENE 19.6 mph 33.4 mph N/A Snow Light Snow
1:15 AM 30.7 °F 18.1 °F 23.7 °F 75% 29.90 in 2.5 mi East 20.7 mph 32.2 mph N/A Snow Light Snow
1:35 AM 30.4 °F 17.3 °F 23.5 °F 76% 29.87 in 2.5 mi East 21.9 mph 32.2 mph N/A Snow Light Snow
1:55 AM 30.2 °F 17.8 °F 24.4 °F 79% 29.86 in 1.8 mi ENE 19.6 mph 33.4 mph N/A Snow Light Snow
2:15 AM 30.6 °F 17.6 °F 23.9 °F 76% 29.86 in 4.0 mi ENE 21.9 mph 28.8 mph N/A Snow Light Snow
2:35 AM 30.2 °F 16.5 °F 24.3 °F 79% 29.83 in 1.8 mi ENE 24.2 mph 36.8 mph N/A Snow Light Snow
2:55 AM 29.8 °F 15.5 °F 24.6 °F 81% 29.80 in 1.8 mi ENE 26.5 mph 34.5 mph N/A Snow Light Snow
3:14 AM 29.7 °F 16.4 °F 24.8 °F 82% 29.79 in 3.0 mi ENE 21.9 mph 31.1 mph N/A Snow Light Snow
3:35 AM 29.8 °F 16.6 °F 24.8 °F 81% 29.79 in 5.0 mi ENE 21.9 mph 33.4 mph N/A Snow Light Snow
3:55 AM 29.8 °F 15.5 °F 25.0 °F 82% 29.79 in 5.0 mi East 26.5 mph 33.4 mph N/A Snow Light Snow
4:14 AM 29.8 °F 16.0 °F 25.3 °F 83% 29.79 in 2.5 mi East 24.2 mph 34.5 mph N/A Snow Light Snow
4:35 AM 29.8 °F 16.0 °F 26.2 °F 86% 29.78 in 2.5 mi East 24.2 mph 31.1 mph N/A Snow Light Snow
4:55 AM 29.7 °F 17.4 °F 26.2 °F 87% 29.77 in 1.8 mi East 18.4 mph 34.5 mph N/A Snow Light Snow
5:15 AM 29.5 °F 16.2 °F 26.6 °F 89% 29.76 in 1.5 mi East 21.9 mph 32.2 mph N/A Snow Light Snow
5:35 AM 29.3 °F 16.6 °F 27.1 °F 92% 29.74 in 1.0 mi East 19.6 mph 29.9 mph N/A Snow Light Snow
5:55 AM 29.5 °F 17.2 °F 27.5 °F 92% 29.73 in 1.0 mi East 18.4 mph 29.9 mph N/A Snow Light Snow
6:15 AM 29.8 °F 16.3 °F 27.9 °F 92% 29.71 in 1.2 mi East 23.0 mph 31.1 mph N/A Snow Light Snow
6:35 AM 30.0 °F 16.3 °F 28.0 °F 92% 29.70 in 1.5 mi East 24.2 mph 28.8 mph N/A Snow Light Snow
6:54 AM 30.0 °F 16.6 °F 28.0 °F 92% 29.69 in 1.5 mi East 23.0 mph 29.9 mph N/A Snow Light Snow
7:15 AM 30.0 °F 17.9 °F 28.0 °F 92% 29.70 in 1.2 mi East 18.4 mph - N/A Snow Light Snow
7:35 AM 30.2 °F 18.1 °F 28.4 °F 93% 29.68 in 1.0 mi East 18.4 mph 25.3 mph N/A Snow Light Snow
7:55 AM 30.2 °F 18.9 °F 28.4 °F 93% 29.66 in 0.8 mi ENE 16.1 mph 24.2 mph N/A Snow Light Snow
8:15 AM 30.0 °F 18.7 °F 28.2 °F 93% 29.66 in 1.0 mi ENE 16.1 mph 26.5 mph N/A Snow Light Snow
8:34 AM 30.2 °F 18.9 °F 28.4 °F 93% 29.66 in 1.0 mi East 16.1 mph 24.2 mph N/A Snow Light Snow
8:55 AM 30.6 °F 19.8 °F 28.8 °F 93% 29.67 in 1.0 mi East 15.0 mph 21.9 mph N/A Snow Light Snow
9:15 AM 30.9 °F 19.8 °F 28.9 °F 92% 29.67 in 1.2 mi ENE 16.1 mph 23.0 mph N/A Snow Light Snow
9:35 AM 30.7 °F 19.2 °F 28.8 °F 92% 29.67 in 1.0 mi East 17.3 mph 25.3 mph N/A Snow Light Snow
9:55 AM 30.7 °F 19.2 °F 28.9 °F 93% 29.65 in 1.0 mi ENE 17.3 mph 23.0 mph N/A Snow Light Snow
10:15 AM 31.1 °F 19.7 °F 29.3 °F 93% 29.63 in 1.0 mi ENE 17.3 mph 25.3 mph N/A Snow Light Snow
10:55 AM 31.1 °F 19.3 °F 29.1 °F 92% 29.64 in 2.0 mi East 18.4 mph 26.5 mph N/A   Overcast
11:14 AM 31.5 °F 20.5 °F 29.3 °F 92% 29.64 in 1.5 mi East 16.1 mph 25.3 mph N/A   Overcast
11:35 AM 31.8 °F 21.0 °F 29.7 °F 92% 29.64 in 1.2 mi East 16.1 mph 24.2 mph N/A Snow Light Snow
11:55 AM 31.8 °F 21.8 °F 29.7 °F 92% 29.65 in 1.0 mi East 13.8 mph 21.9 mph N/A Snow Light Snow
12:15 PM 32.0 °F 20.5 °F 30.0 °F 92% 29.65 in 1.2 mi East 18.4 mph 23.0 mph N/A Snow Light Snow
12:35 PM 32.0 °F 22.1 °F 29.8 °F 92% 29.65 in 1.0 mi East 13.8 mph 18.4 mph N/A Snow Light Snow
12:54 PM 32.0 °F 22.5 °F 30.0 °F 92% 29.65 in 1.0 mi East 12.7 mph 21.9 mph N/A Snow Light Snow
1:15 PM 32.0 °F 22.5 °F 30.0 °F 92% 29.64 in 1.2 mi East 12.7 mph 20.7 mph N/A Snow Light Snow
1:35 PM 32.0 °F 22.5 °F 30.0 °F 92% 29.65 in 0.8 mi East 12.7 mph 19.6 mph N/A Snow Light Snow
1:55 PM 32.0 °F 22.5 °F 29.8 °F 92% 29.64 in 1.0 mi ENE 12.7 mph 18.4 mph N/A Snow Light Snow
2:15 PM 31.8 °F 22.8 °F 29.3 °F 90% 29.64 in 1.5 mi East 11.5 mph 21.9 mph N/A Snow Light Snow
2:35 PM 32.0 °F 22.1 °F 29.8 °F 92% 29.64 in 3.0 mi East 13.8 mph 21.9 mph N/A   Overcast
2:55 PM 32.0 °F 23.6 °F 29.5 °F 90% 29.65 in 2.5 mi East 10.4 mph - N/A   Overcast
3:15 PM 32.0 °F 23.6 °F 29.7 °F 91% 29.65 in 1.2 mi East 10.4 mph 19.6 mph N/A Snow Light Snow
3:34 PM 32.0 °F 23.6 °F 29.8 °F 92% 29.65 in 1.0 mi East 10.4 mph - N/A Snow Light Snow
3:55 PM 32.0 °F 24.2 °F 29.8 °F 92% 29.65 in 1.2 mi East 9.2 mph - N/A Snow Light Snow
4:14 PM 31.8 °F 23.9 °F 29.8 °F 92% 29.65 in 1.2 mi East 9.2 mph - N/A Snow Light Snow
4:35 PM 31.6 °F 23.7 °F 29.7 °F 92% 29.65 in 1.0 mi ENE 9.2 mph 16.1 mph N/A Snow Light Snow
4:55 PM 31.6 °F 24.4 °F 29.7 °F 92% 29.65 in 1.0 mi ENE 8.1 mph - N/A Snow Light Snow
5:15 PM 31.8 °F 22.8 °F 30.0 °F 93% 29.65 in 1.0 mi ENE 11.5 mph - N/A Snow Light Snow
5:35 PM 31.8 °F 23.9 °F 30.0 °F 93% 29.65 in 1.0 mi East 9.2 mph - N/A Snow Light Snow
5:54 PM 31.8 °F 23.9 °F 30.0 °F 93% 29.66 in 0.8 mi ENE 9.2 mph - N/A Snow Light Snow
6:15 PM 31.8 °F 23.3 °F 30.2 °F 94% 29.67 in 1.0 mi East 10.4 mph - N/A Snow Light Snow
6:35 PM 31.8 °F 24.6 °F 30.2 °F 94% 29.67 in 1.0 mi East 8.1 mph - N/A Snow Light Snow
6:54 PM 31.6 °F 24.4 °F 30.0 °F 94% 29.68 in 1.2 mi East 8.1 mph - N/A Snow Light Snow
7:15 PM 31.5 °F 24.9 °F 29.8 °F 94% 29.68 in 1.0 mi East 6.9 mph - N/A Snow Light Snow
7:34 PM 31.3 °F 25.6 °F 29.8 °F 94% 29.67 in 1.2 mi East 5.8 mph - N/A Snow Light Snow
7:55 PM 31.5 °F 25.8 °F 30.0 °F 94% 29.68 in 1.2 mi East 5.8 mph - N/A Snow Light Snow
8:15 PM 31.1 °F 24.5 °F 29.8 °F 95% 29.68 in 2.0 mi East 6.9 mph - N/A Snow Light Snow
8:35 PM 31.5 °F 25.8 °F 30.0 °F 94% 29.68 in 2.5 mi East 5.8 mph - N/A Snow Light Snow
8:55 PM 31.1 °F 23.7 °F 29.8 °F 95% 29.68 in 2.5 mi East 8.1 mph - N/A Snow Light Snow
9:15 PM 31.5 °F 26.8 °F 30.0 °F 94% 29.68 in 3.0 mi East 4.6 mph - N/A Snow Light Snow
9:35 PM 31.6 °F 27.0 °F 30.2 °F 94% 29.68 in 4.0 mi ENE 4.6 mph - N/A   Overcast
9:55 PM 31.6 °F 26.0 °F 30.2 °F 94% 29.68 in 5.0 mi East 5.8 mph - N/A   Overcast
10:14 PM 31.6 °F 25.1 °F 30.0 °F 94% 29.68 in 4.0 mi East 6.9 mph - N/A   Overcast
10:35 PM 31.6 °F 27.0 °F 30.2 °F 94% 29.68 in 2.0 mi ENE 4.6 mph - N/A Snow Light Snow
10:55 PM 31.8 °F 26.2 °F 30.2 °F 94% 29.69 in 2.5 mi East 5.8 mph - N/A Snow Light Snow
11:15 PM 31.6 °F 26.0 °F 30.2 °F 94% 29.68 in 3.0 mi ENE 5.8 mph - N/A Snow Light Snow
11:35 PM 31.8 °F 27.3 °F 30.2 °F 94% 29.68 in 3.0 mi ENE 4.6 mph - N/A Snow Light Snow
11:55 PM 31.8 °F 27.3 °F 30.2 °F 94% 29.68 in 4.0 mi ENE 4.6 mph - N/A Snow Light Snow